,,,PA_Meas_PMT16A,,PR_Meas_QMR101_102,,RH_Meas_QMH101,,SR_Meas_QMS101,,TA_Meas_QMH101,,GenWind,,GenWind,
date,time,status,PA,status,PR,status,RH,status,SR,status,TA,status,DirAvg,status,SpdAvg,
2014-08-05, 00:00:05,VALID,1009.62,VALID,0,VALID,87.231,VALID,0,VALID,23.733,VALID,30,VALID,0,
2014-08-05, 00:01:05,VALID,1009.58,VALID,0,VALID,87.1776,VALID,0,VALID,23.7135,VALID,30,VALID,0,
2014-08-05, 00:02:05,VALID,1009.59,VALID,0,VALID,87.2539,VALID,0,VALID,23.7135,VALID,30,VALID,0,
2014-08-05, 00:03:05,VALID,1009.55,VALID,0,VALID,87.2386,VALID,0,VALID,23.7135,VALID,30,VALID,0,
2014-08-05, 00:04:05,VALID,1009.55,VALID,0,VALID,87.2234,VALID,0,VALID,23.7135,VALID,30,VALID,0,
2014-08-05, 00:05:04,VALID,1009.53,VALID,0,VALID,87.2005,VALID,0,VALID,23.7135,VALID,30,VALID,0,
2014-08-05, 00:06:04,VALID,1009.48,VALID,0,VALID,86.9336,VALID,0,VALID,23.694,VALID,30,VALID,0,
2014-08-05, 00:07:04,VALID,1009.5,VALID,0,VALID,86.8116,VALID,0,VALID,23.694,VALID,30,VALID,0,
2014-08-05, 00:08:04,VALID,1009.49,VALID,0,VALID,86.9107,VALID,0,VALID,23.7135,VALID,30,VALID,0,
2014-08-05, 00:09:04,VALID,1009.46,VALID,0,VALID,87.2386,VALID,0,VALID,23.7525,VALID,30,VALID,0,
2014-08-05, 00:10:04,VALID,1009.46,VALID,0,VALID,87.1776,VALID,0,VALID,23.7525,VALID,30,VALID,0,
2014-08-05, 00:11:04,VALID,1009.47,VALID,0,VALID,87.2234,VALID,0,VALID,23.772,VALID,30,VALID,0,
2014-08-05, 00:12:04,VALID,1009.45,VALID,0,VALID,87.1166,VALID,0,VALID,23.7914,VALID,30,VALID,0,
2014-08-05, 00:13:04,VALID,1009.4,VALID,0,VALID,86.5828,VALID,0,VALID,23.7914,VALID,30,VALID,0,
2014-08-05, 00:14:04,VALID,1009.43,VALID,0,VALID,86.3998,VALID,0,VALID,23.772,VALID,30,VALID,0,
2014-08-05, 00:15:04,VALID,1009.39,VALID,0,VALID,86.2473,VALID,0,VALID,23.7525,VALID,30,VALID,0,
2014-08-05, 00:16:04,VALID,1009.37,VALID,0,VALID,86.5218,VALID,0,VALID,23.772,VALID,30,VALID,0,
2014-08-05, 00:17:04,VALID,1009.37,VALID,0,VALID,86.5447,VALID,0,VALID,23.772,VALID,30,VALID,0,
2014-08-05, 00:18:04,VALID,1009.35,VALID,0,VALID,86.4684,VALID,0,VALID,23.772,VALID,30,VALID,0,
2014-08-05, 00:19:04,VALID,1009.33,VALID,0,VALID,86.6133,VALID,0,VALID,23.7914,VALID,30,VALID,0,
2014-08-05, 00:20:04,VALID,1009.34,VALID,0,VALID,86.7506,VALID,0,VALID,23.8109,VALID,30,VALID,0,
2014-08-05, 00:21:04,VALID,1009.3,VALID,0,VALID,86.8268,VALID,0,VALID,23.8109,VALID,30,VALID,0,
2014-08-05, 00:22:04,VALID,1009.29,VALID,0,VALID,87.0556,VALID,0,VALID,23.8304,VALID,30,VALID,0,
2014-08-05, 00:23:04,VALID,1009.27,VALID,0,VALID,86.9717,VALID,0,VALID,23.8304,VALID,30,VALID,0,
2014-08-05, 00:24:04,VALID,1009.27,VALID,0,VALID,86.926,VALID,0,VALID,23.8109,VALID,30,VALID,0,
2014-08-05, 00:25:04,VALID,1009.27,VALID,0,VALID,87.0098,VALID,0,VALID,23.8109,VALID,30,VALID,0,
2014-08-05, 00:26:04,VALID,1009.24,VALID,0,VALID,86.9336,VALID,0,VALID,23.7914,VALID,30,VALID,0,
2014-08-05, 00:27:04,VALID,1009.24,VALID,0,VALID,86.8802,VALID,0,VALID,23.7914,VALID,30,VALID,0,
2014-08-05, 00:28:04,VALID,1009.22,VALID,0,VALID,86.7887,VALID,0,VALID,23.7914,VALID,30,VALID,0,
2014-08-05, 00:29:04,VALID,1009.22,VALID,0,VALID,86.7506,VALID,0,VALID,23.772,VALID,30,VALID,0,
2014-08-05, 00:30:04,VALID,1009.18,VALID,0,VALID,86.5065,VALID,0,VALID,23.7525,VALID,30,VALID,0,
2014-08-05, 00:31:04,VALID,1009.17,VALID,0,VALID,86.4074,VALID,0,VALID,23.772,VALID,30,VALID,0,
2014-08-05, 00:32:04,VALID,1009.17,VALID,0,VALID,86.3769,VALID,0,VALID,23.7525,VALID,30,VALID,0,
2014-08-05, 00:33:04,VALID,1009.13,VALID,0,VALID,86.4227,VALID,0,VALID,23.7525,VALID,30,VALID,0,
2014-08-05, 00:34:04,VALID,1009.12,VALID,0,VALID,86.537,VALID,0,VALID,23.7525,VALID,30,VALID,0,
2014-08-05, 00:35:04,VALID,1009.13,VALID,0,VALID,86.8573,VALID,0,VALID,23.7932,VALID,30,VALID,0,
2014-08-05, 00:36:04,VALID,1009.12,VALID,0,VALID,86.926,VALID,0,VALID,23.8109,VALID,30,VALID,0,
2014-08-05, 00:37:04,VALID,1009.1,VALID,0,VALID,86.8802,VALID,0,VALID,23.8304,VALID,30,VALID,0,
2014-08-05, 00:38:04,VALID,1009.1,VALID,0,VALID,86.7887,VALID,0,VALID,23.8304,VALID,30,VALID,0,
2014-08-05, 00:39:04,VALID,1009.07,VALID,0,VALID,86.7353,VALID,0,VALID,23.8499,VALID,30,VALID,0,
2014-08-05, 00:40:04,VALID,1009.04,VALID,0,VALID,86.5828,VALID,0,VALID,23.8499,VALID,30,VALID,0,
2014-08-05, 00:41:04,VALID,1009.02,VALID,0,VALID,86.5904,VALID,0,VALID,23.8694,VALID,30,VALID,0,
2014-08-05, 00:42:04,VALID,1009,VALID,0,VALID,86.4989,VALID,0,VALID,23.8694,VALID,30,VALID,0,
2014-08-05, 00:43:04,VALID,1008.98,VALID,0,VALID,86.4913,VALID,0,VALID,23.8694,VALID,30,VALID,0,
2014-08-05, 00:44:04,VALID,1008.95,VALID,0,VALID,86.5065,VALID,0,VALID,23.8694,VALID,30,VALID,0,
2014-08-05, 00:45:04,VALID,1008.92,VALID,0,VALID,86.4608,VALID,0,VALID,23.8694,VALID,30,VALID,0,
2014-08-05, 00:46:04,VALID,1008.9,VALID,0,VALID,86.5065,VALID,0,VALID,23.8499,VALID,30,VALID,0,
2014-08-05, 00:47:04,VALID,1008.87,VALID,0,VALID,86.476,VALID,0,VALID,23.8499,VALID,30,VALID,0,
2014-08-05, 00:48:04,VALID,1008.87,VALID,0,VALID,86.5142,VALID,0,VALID,23.8109,VALID,30,VALID,0,
2014-08-05, 00:49:04,VALID,1008.85,VALID,0,VALID,86.5447,VALID,0,VALID,23.8127,VALID,30,VALID,0,
2014-08-05, 00:50:04,VALID,1008.83,VALID,0,VALID,86.6591,VALID,0,VALID,23.772,VALID,30,VALID,0,
2014-08-05, 00:51:04,VALID,1008.81,VALID,0,VALID,86.6972,VALID,0,VALID,23.772,VALID,30,VALID,0,
2014-08-05, 00:52:04,VALID,1008.8,VALID,0,VALID,86.987,VALID,0,VALID,23.733,VALID,30,VALID,0,
2014-08-05, 00:53:04,VALID,1008.78,VALID,0,VALID,87.1242,VALID,0,VALID,23.7135,VALID,30,VALID,0,
2014-08-05, 00:54:04,VALID,1008.79,VALID,0,VALID,87.2386,VALID,0,VALID,23.694,VALID,30,VALID,0,
2014-08-05, 00:55:04,VALID,1008.77,VALID,0,VALID,87.414,VALID,0,VALID,23.655,VALID,30,VALID,0,
2014-08-05, 00:56:04,VALID,1008.78,VALID,0,VALID,87.5665,VALID,0,VALID,23.6356,VALID,30,VALID,0,
2014-08-05, 00:57:04,VALID,1008.77,VALID,0,VALID,87.6504,VALID,0,VALID,23.6161,VALID,30,VALID,0,
2014-08-05, 00:58:04,VALID,1008.77,VALID,0,VALID,87.7648,VALID,0.112112,VALID,23.5948,VALID,30,VALID,0,
2014-08-05, 00:59:04,VALID,1008.76,VALID,0,VALID,87.8334,VALID,0,VALID,23.5966,VALID,30,VALID,0,
2014-08-05, 01:00:04,VALID,1008.76,VALID,0,VALID,88.0317,VALID,0,VALID,23.5771,VALID,30,VALID,0,
2014-08-05, 01:01:04,VALID,1008.77,VALID,0,VALID,88.0851,VALID,0,VALID,23.5576,VALID,30,VALID,0,
2014-08-05, 01:02:04,VALID,1008.76,VALID,0,VALID,88.1995,VALID,0,VALID,23.5381,VALID,30,VALID,0,
2014-08-05, 01:03:04,VALID,1008.78,VALID,0,VALID,88.352,VALID,0,VALID,23.5186,VALID,30,VALID,0,
2014-08-05, 01:04:04,VALID,1008.77,VALID,0,VALID,88.5884,VALID,0,VALID,23.4992,VALID,30,VALID,0,
2014-08-05, 01:05:04,VALID,1008.77,VALID,0,VALID,88.718,VALID,0,VALID,23.4992,VALID,30,VALID,0,
2014-08-05, 01:06:04,VALID,1008.77,VALID,0,VALID,88.8019,VALID,0,VALID,23.4602,VALID,30,VALID,0,
2014-08-05, 01:07:04,VALID,1008.76,VALID,0,VALID,88.8858,VALID,0,VALID,23.4602,VALID,30,VALID,0,
2014-08-05, 01:08:04,VALID,1008.76,VALID,0,VALID,88.84,VALID,0,VALID,23.4602,VALID,30,VALID,0,
2014-08-05, 01:09:04,VALID,1008.77,VALID,0,VALID,88.8629,VALID,0,VALID,23.4407,VALID,30,VALID,0,
2014-08-05, 01:10:04,VALID,1008.77,VALID,0,VALID,88.8172,VALID,0.112112,VALID,23.4407,VALID,30,VALID,0,
2014-08-05, 01:11:04,VALID,1008.77,VALID,0,VALID,88.8858,VALID,0,VALID,23.4212,VALID,30,VALID,0,
2014-08-05, 01:12:04,VALID,1008.78,VALID,0,VALID,89.0612,VALID,0,VALID,23.4212,VALID,30,VALID,0,
2014-08-05, 01:13:04,VALID,1008.73,VALID,0,VALID,89.1222,VALID,0,VALID,23.4017,VALID,30,VALID,0,
2014-08-05, 01:14:04,VALID,1008.73,VALID,0,VALID,89.2061,VALID,0,VALID,23.4017,VALID,30,VALID,0,
2014-08-05, 01:15:04,VALID,1008.73,VALID,0,VALID,89.1984,VALID,0,VALID,23.4017,VALID,30,VALID,0,
2014-08-05, 01:16:04,VALID,1008.74,VALID,0,VALID,89.2213,VALID,0,VALID,23.3823,VALID,30,VALID,0,
2014-08-05, 01:17:04,VALID,1008.76,VALID,0,VALID,89.2976,VALID,0,VALID,23.3823,VALID,30,VALID,0,
2014-08-05, 01:18:04,VALID,1008.74,VALID,0,VALID,89.4043,VALID,0,VALID,23.3628,VALID,30,VALID,0,
2014-08-05, 01:19:04,VALID,1008.74,VALID,0,VALID,89.5035,VALID,0,VALID,23.3433,VALID,30,VALID,0,
2014-08-05, 01:20:04,VALID,1008.75,VALID,0,VALID,89.595,VALID,0,VALID,23.3238,VALID,30,VALID,0,
2014-08-05, 01:21:04,VALID,1008.72,VALID,0,VALID,89.5492,VALID,0,VALID,23.3238,VALID,30,VALID,0,
2014-08-05, 01:22:04,VALID,1008.75,VALID,0,VALID,89.5568,VALID,0,VALID,23.3238,VALID,30,VALID,0,
2014-08-05, 01:23:04,VALID,1008.75,VALID,0,VALID,89.4806,VALID,0,VALID,23.3238,VALID,30,VALID,0,
2014-08-05, 01:24:04,VALID,1008.72,VALID,0,VALID,89.2594,VALID,0,VALID,23.3238,VALID,30,VALID,0,
2014-08-05, 01:25:04,VALID,1008.74,VALID,0,VALID,89.0536,VALID,0.112112,VALID,23.3043,VALID,30,VALID,0,
2014-08-05, 01:26:04,VALID,1008.72,VALID,0,VALID,88.9697,VALID,0,VALID,23.2848,VALID,30,VALID,0,
2014-08-05, 01:27:04,VALID,1008.73,VALID,0,VALID,89.1146,VALID,0,VALID,23.2848,VALID,30,VALID,0,
2014-08-05, 01:28:04,VALID,1008.7,VALID,0,VALID,89.2061,VALID,0.112112,VALID,23.2654,VALID,30,VALID,0,
2014-08-05, 01:29:04,VALID,1008.72,VALID,0,VALID,89.2213,VALID,0,VALID,23.2848,VALID,30,VALID,0,
2014-08-05, 01:30:04,VALID,1008.7,VALID,0,VALID,89.2137,VALID,0,VALID,23.2654,VALID,30,VALID,0,
2014-08-05, 01:31:04,VALID,1008.69,VALID,0,VALID,89.0307,VALID,0,VALID,23.2654,VALID,30,VALID,0,
2014-08-05, 01:32:04,VALID,1008.7,VALID,0,VALID,89.0154,VALID,0,VALID,23.2848,VALID,30,VALID,0,
2014-08-05, 01:33:04,VALID,1008.72,VALID,0,VALID,89.0383,VALID,0,VALID,23.2848,VALID,30,VALID,0,
2014-08-05, 01:34:04,VALID,1008.71,VALID,0,VALID,89.1451,VALID,0,VALID,23.2654,VALID,30,VALID,0,
2014-08-05, 01:35:04,VALID,1008.74,VALID,0,VALID,89.0688,VALID,0,VALID,23.2654,VALID,30,VALID,0,
2014-08-05, 01:36:04,VALID,1008.74,VALID,0,VALID,89.0764,VALID,0,VALID,23.2459,VALID,30,VALID,0,
2014-08-05, 01:37:04,VALID,1008.76,VALID,0,VALID,89.2976,VALID,0,VALID,23.2264,VALID,30,VALID,0,
2014-08-05, 01:38:04,VALID,1008.77,VALID,0,VALID,89.5492,VALID,0,VALID,23.2069,VALID,30,VALID,0,
2014-08-05, 01:39:04,VALID,1008.72,VALID,0,VALID,89.7399,VALID,0.112112,VALID,23.1874,VALID,30,VALID,0,
2014-08-05, 01:40:04,VALID,1008.73,VALID,0,VALID,89.8695,VALID,0,VALID,23.1679,VALID,30,VALID,0,
2014-08-05, 01:41:04,VALID,1008.74,VALID,0,VALID,90.0754,VALID,0,VALID,23.1679,VALID,30,VALID,0,
2014-08-05, 01:42:04,VALID,1008.72,VALID,0,VALID,90.205,VALID,0.112112,VALID,23.1679,VALID,30,VALID,0,
2014-08-05, 01:43:04,VALID,1008.73,VALID,0,VALID,90.4109,VALID,0,VALID,23.129,VALID,30,VALID,0,
2014-08-05, 01:44:04,VALID,1008.74,VALID,0,VALID,90.5406,VALID,0.112112,VALID,23.1485,VALID,30,VALID,0,
2014-08-05, 01:45:04,VALID,1008.77,VALID,0,VALID,90.6245,VALID,0,VALID,23.129,VALID,30,VALID,0,
2014-08-05, 01:46:04,VALID,1008.78,VALID,0,VALID,90.6626,VALID,0,VALID,23.129,VALID,30,VALID,0,
2014-08-05, 01:47:04,VALID,1008.76,VALID,0,VALID,90.7007,VALID,0,VALID,23.1077,VALID,30,VALID,0,
2014-08-05, 01:48:04,VALID,1008.73,VALID,0,VALID,90.7846,VALID,0,VALID,23.1095,VALID,30,VALID,0,
2014-08-05, 01:49:04,VALID,1008.73,VALID,0,VALID,90.7312,VALID,0,VALID,23.1095,VALID,30,VALID,0,
2014-08-05, 01:50:04,VALID,1008.71,VALID,0,VALID,90.7693,VALID,0,VALID,23.129,VALID,30,VALID,0,
2014-08-05, 01:51:04,VALID,1008.7,VALID,0,VALID,91.082,VALID,0,VALID,23.129,VALID,30,VALID,0,
2014-08-05, 01:52:04,VALID,1008.71,VALID,0,VALID,91.1506,VALID,0,VALID,23.1485,VALID,30,VALID,0,
2014-08-05, 01:53:04,VALID,1008.69,VALID,0,VALID,91.0896,VALID,0,VALID,23.1679,VALID,30,VALID,0,
2014-08-05, 01:54:04,VALID,1008.69,VALID,0,VALID,90.9829,VALID,0,VALID,23.1485,VALID,30,VALID,0,
2014-08-05, 01:55:04,VALID,1008.66,VALID,0,VALID,90.9371,VALID,0,VALID,23.1485,VALID,30,VALID,0,
2014-08-05, 01:56:04,VALID,1008.65,VALID,0,VALID,90.8685,VALID,0,VALID,23.1679,VALID,30,VALID,0,
2014-08-05, 01:57:04,VALID,1008.64,VALID,0,VALID,90.7998,VALID,0,VALID,23.1485,VALID,30,VALID,0,
2014-08-05, 01:58:04,VALID,1008.65,VALID,0,VALID,90.7083,VALID,0,VALID,23.129,VALID,30,VALID,0,
2014-08-05, 01:59:04,VALID,1008.62,VALID,0,VALID,90.7998,VALID,0,VALID,23.09,VALID,30,VALID,0,
2014-08-05, 02:00:04,VALID,1008.62,VALID,0,VALID,90.9219,VALID,0,VALID,23.0705,VALID,30,VALID,0,
2014-08-05, 02:01:04,VALID,1008.59,VALID,0,VALID,91.1125,VALID,0,VALID,23.0705,VALID,30,VALID,0,
2014-08-05, 02:02:04,VALID,1008.63,VALID,0,VALID,91.1964,VALID,0,VALID,22.9909,VALID,30,VALID,0,
2014-08-05, 02:03:04,VALID,1008.63,VALID,0,VALID,91.4557,VALID,0,VALID,22.9731,VALID,30,VALID,0,
2014-08-05, 02:04:04,VALID,1008.66,VALID,0,VALID,91.7683,VALID,0,VALID,22.9536,VALID,30,VALID,0,
2014-08-05, 02:05:04,VALID,1008.66,VALID,0,VALID,92.5843,VALID,0,VALID,22.9536,VALID,30,VALID,0,
2014-08-05, 02:06:04,VALID,1008.68,VALID,0,VALID,93.4841,VALID,0,VALID,22.9342,VALID,30,VALID,0,
2014-08-05, 02:07:04,VALID,1008.71,VALID,0,VALID,94.2924,VALID,0.112112,VALID,22.9342,VALID,30,VALID,0,
2014-08-05, 02:08:04,VALID,1008.7,VALID,0,VALID,94.8339,VALID,0,VALID,22.9342,VALID,30,VALID,0,
2014-08-05, 02:09:04,VALID,1008.72,VALID,0,VALID,95.1999,VALID,0,VALID,22.9536,VALID,30,VALID,0,
2014-08-05, 02:10:04,VALID,1008.72,VALID,0,VALID,95.2914,VALID,0,VALID,22.9342,VALID,30,VALID,0,
2014-08-05, 02:11:04,VALID,1008.74,VALID,0,VALID,95.3067,VALID,0,VALID,22.9342,VALID,30,VALID,0,
2014-08-05, 02:12:04,VALID,1008.75,VALID,0,VALID,95.6651,VALID,0,VALID,22.9749,VALID,30,VALID,0,
2014-08-05, 02:13:04,VALID,1008.73,VALID,0,VALID,95.9167,VALID,0,VALID,22.9731,VALID,30,VALID,0,
2014-08-05, 02:14:04,VALID,1008.74,VALID,0,VALID,95.81,VALID,0,VALID,22.9943,VALID,30,VALID,0,
2014-08-05, 02:15:04,VALID,1008.73,VALID,0,VALID,95.8862,VALID,0.112112,VALID,22.9731,VALID,30,VALID,0,
2014-08-05, 02:16:04,VALID,1008.74,VALID,0,VALID,95.9167,VALID,0,VALID,22.9519,VALID,30,VALID,0,
2014-08-05, 02:17:04,VALID,1008.76,VALID,0,VALID,95.9701,VALID,0,VALID,22.9731,VALID,30,VALID,0,
2014-08-05, 02:18:04,VALID,1008.75,VALID,0,VALID,96.0692,VALID,0,VALID,22.9731,VALID,30,VALID,0,
2014-08-05, 02:19:04,VALID,1008.77,VALID,0,VALID,96.0769,VALID,0,VALID,22.9731,VALID,30,VALID,0,
2014-08-05, 02:20:04,VALID,1008.8,VALID,0,VALID,95.993,VALID,0,VALID,22.9342,VALID,30,VALID,0,
2014-08-05, 02:21:04,VALID,1008.77,VALID,0,VALID,96.237,VALID,0,VALID,22.9342,VALID,30,VALID,0,
2014-08-05, 02:22:04,VALID,1008.77,VALID,0,VALID,96.42,VALID,0,VALID,22.9147,VALID,30,VALID,0,
2014-08-05, 02:23:04,VALID,1008.78,VALID,0,VALID,96.542,VALID,0,VALID,22.8952,VALID,30,VALID,0,
2014-08-05, 02:24:04,VALID,1008.79,VALID,0,VALID,96.7937,VALID,0,VALID,22.8952,VALID,30,VALID,0,
2014-08-05, 02:25:04,VALID,1008.78,VALID,0,VALID,97.2589,VALID,0,VALID,22.9147,VALID,30,VALID,0,
2014-08-05, 02:26:04,VALID,1008.78,VALID,0,VALID,97.7088,VALID,0,VALID,22.9536,VALID,30,VALID,0,
2014-08-05, 02:27:04,VALID,1008.76,VALID,0,VALID,98.0672,VALID,0.112112,VALID,22.9926,VALID,30,VALID,0,
2014-08-05, 02:28:04,VALID,1008.76,VALID,0,VALID,98.0901,VALID,0,VALID,23.0121,VALID,30,VALID,0,
2014-08-05, 02:29:04,VALID,1008.75,VALID,0,VALID,98.0367,VALID,0,VALID,23.0316,VALID,30,VALID,0,
2014-08-05, 02:30:04,VALID,1008.76,VALID,0,VALID,97.8918,VALID,0,VALID,23.0511,VALID,30,VALID,0,
2014-08-05, 02:31:04,VALID,1008.77,VALID,0,VALID,97.6401,VALID,0,VALID,23.0298,VALID,30,VALID,0,
2014-08-05, 02:32:04,VALID,1008.74,VALID,0,VALID,97.3122,VALID,0,VALID,23.0316,VALID,30,VALID,0,
2014-08-05, 02:33:04,VALID,1008.72,VALID,0,VALID,97.2512,VALID,0,VALID,23.0121,VALID,30,VALID,0,
2014-08-05, 02:34:04,VALID,1008.68,VALID,0,VALID,97.4114,VALID,0.112112,VALID,23.0121,VALID,30,VALID,0,
2014-08-05, 02:35:04,VALID,1008.69,VALID,0,VALID,97.5258,VALID,0,VALID,22.9926,VALID,30,VALID,0,
2014-08-05, 02:36:04,VALID,1008.7,VALID,0,VALID,97.5715,VALID,0,VALID,22.9731,VALID,30,VALID,0,
2014-08-05, 02:37:04,VALID,1008.68,VALID,0,VALID,97.6935,VALID,0,VALID,22.9731,VALID,30,VALID,0,
2014-08-05, 02:38:04,VALID,1008.7,VALID,0,VALID,97.9223,VALID,0,VALID,22.9536,VALID,30,VALID,0,
2014-08-05, 02:39:04,VALID,1008.67,VALID,0,VALID,98.0291,VALID,0,VALID,22.9342,VALID,30,VALID,0,
2014-08-05, 02:40:04,VALID,1008.67,VALID,0,VALID,98.0443,VALID,0,VALID,22.8952,VALID,30,VALID,0,
2014-08-05, 02:41:04,VALID,1008.65,VALID,0,VALID,98.0977,VALID,0,VALID,22.8952,VALID,30,VALID,0,
2014-08-05, 02:42:04,VALID,1008.69,VALID,0,VALID,98.296,VALID,0.112112,VALID,22.8757,VALID,30,VALID,0,
2014-08-05, 02:43:04,VALID,1008.66,VALID,0,VALID,98.4332,VALID,0,VALID,22.835,VALID,30,VALID,0,
2014-08-05, 02:44:04,VALID,1008.68,VALID,0,VALID,98.6162,VALID,0.112112,VALID,22.8562,VALID,30,VALID,0,
2014-08-05, 02:45:04,VALID,1008.65,VALID,0,VALID,98.7611,VALID,0,VALID,22.8368,VALID,30,VALID,0,
2014-08-05, 02:46:04,VALID,1008.67,VALID,0,VALID,98.9365,VALID,0.112112,VALID,22.8562,VALID,30,VALID,0,
2014-08-05, 02:47:04,VALID,1008.63,VALID,0,VALID,99.0433,VALID,0,VALID,22.8368,VALID,30,VALID,0,
2014-08-05, 02:48:04,VALID,1008.62,VALID,0,VALID,99.1195,VALID,0.112112,VALID,22.835,VALID,30,VALID,0,
2014-08-05, 02:49:04,VALID,1008.62,VALID,0,VALID,99.2644,VALID,0.112112,VALID,22.8562,VALID,30,VALID,0,
2014-08-05, 02:50:04,VALID,1008.63,VALID,0,VALID,99.6228,VALID,0,VALID,22.8562,VALID,30,VALID,0,
2014-08-05, 02:51:04,VALID,1008.59,VALID,0,VALID,99.7525,VALID,0,VALID,22.8757,VALID,30,VALID,0,
2014-08-05, 02:52:04,VALID,1008.59,VALID,0,VALID,99.8364,VALID,0,VALID,22.8952,VALID,30,VALID,0,
2014-08-05, 02:53:04,VALID,1008.6,VALID,0,VALID,99.8135,VALID,0,VALID,22.8952,VALID,30,VALID,0,
2014-08-05, 02:54:04,VALID,1008.6,VALID,0,VALID,99.7296,VALID,0,VALID,22.8935,VALID,30,VALID,0,
2014-08-05, 02:55:04,VALID,1008.6,VALID,0,VALID,99.5847,VALID,0,VALID,22.8757,VALID,30,VALID,0,
2014-08-05, 02:56:04,VALID,1008.58,VALID,0,VALID,99.4932,VALID,0,VALID,22.8562,VALID,30,VALID,0,
2014-08-05, 02:57:04,VALID,1008.61,VALID,0,VALID,99.6076,VALID,0,VALID,22.8368,VALID,30,VALID,0,
2014-08-05, 02:58:04,VALID,1008.61,VALID,0,VALID,99.7372,VALID,0.112112,VALID,22.7961,VALID,30,VALID,0,
2014-08-05, 02:59:04,VALID,1008.63,VALID,0,VALID,99.9355,VALID,0,VALID,22.7766,VALID,30,VALID,0,
2014-08-05, 03:00:04,VALID,1008.59,VALID,0,VALID,100.05,VALID,0,VALID,22.7978,VALID,30,VALID,0,
2014-08-05, 03:01:04,VALID,1008.57,VALID,0,VALID,100.241,VALID,0,VALID,22.7978,VALID,30,VALID,0,
2014-08-05, 03:02:04,VALID,1008.59,VALID,0,VALID,100.469,VALID,0,VALID,22.8173,VALID,30,VALID,0,
2014-08-05, 03:03:04,VALID,1008.58,VALID,0,VALID,100.69,VALID,0,VALID,22.8368,VALID,30,VALID,0,
2014-08-05, 03:04:04,VALID,1008.61,VALID,0,VALID,100.835,VALID,0,VALID,22.8368,VALID,30,VALID,0,
2014-08-05, 03:05:04,VALID,1008.58,VALID,0,VALID,100.919,VALID,0.112112,VALID,22.8562,VALID,30,VALID,0,
2014-08-05, 03:06:04,VALID,1008.6,VALID,0,VALID,100.927,VALID,0,VALID,22.8562,VALID,30,VALID,0,
2014-08-05, 03:07:04,VALID,1008.57,VALID,0,VALID,100.889,VALID,0.112112,VALID,22.8562,VALID,30,VALID,0,
2014-08-05, 03:08:04,VALID,1008.6,VALID,0,VALID,100.904,VALID,0,VALID,22.8368,VALID,30,VALID,0,
2014-08-05, 03:09:04,VALID,1008.59,VALID,0,VALID,100.835,VALID,0,VALID,22.8368,VALID,30,VALID,0,
2014-08-05, 03:10:04,VALID,1008.6,VALID,0,VALID,100.866,VALID,0,VALID,22.8368,VALID,30,VALID,0,
2014-08-05, 03:11:04,VALID,1008.56,VALID,0,VALID,100.866,VALID,0,VALID,22.8368,VALID,30,VALID,0,
2014-08-05, 03:12:04,VALID,1008.59,VALID,0,VALID,100.927,VALID,0,VALID,22.8173,VALID,30,VALID,0,
2014-08-05, 03:13:04,VALID,1008.57,VALID,0,VALID,101.018,VALID,0,VALID,22.8173,VALID,30,VALID,0,
2014-08-05, 03:14:04,VALID,1008.58,VALID,0,VALID,101.049,VALID,0,VALID,22.7978,VALID,30,VALID,0,
2014-08-05, 03:15:04,VALID,1008.55,VALID,0,VALID,101.072,VALID,0.112112,VALID,22.7978,VALID,30,VALID,0,
2014-08-05, 03:16:04,VALID,1008.54,VALID,0,VALID,101.14,VALID,0.112112,VALID,22.7978,VALID,30,VALID,0,
2014-08-05, 03:17:04,VALID,1008.53,VALID,0,VALID,101.255,VALID,0,VALID,22.7978,VALID,30,VALID,0,
2014-08-05, 03:18:04,VALID,1008.5,VALID,0,VALID,101.407,VALID,0,VALID,22.7978,VALID,30,VALID,0,
2014-08-05, 03:19:04,VALID,1008.49,VALID,0,VALID,101.476,VALID,0.112112,VALID,22.8173,VALID,30,VALID,0,
2014-08-05, 03:20:04,VALID,1008.51,VALID,0,VALID,101.636,VALID,0,VALID,22.7978,VALID,30,VALID,0,
2014-08-05, 03:21:04,VALID,1008.49,VALID,0,VALID,101.789,VALID,0,VALID,22.8368,VALID,30,VALID,0,
2014-08-05, 03:22:04,VALID,1008.51,VALID,0,VALID,101.75,VALID,0.112112,VALID,22.8173,VALID,30,VALID,0,
2014-08-05, 03:23:04,VALID,1008.5,VALID,0,VALID,101.59,VALID,0.112112,VALID,22.8173,VALID,30,VALID,0,
2014-08-05, 03:24:04,VALID,1008.49,VALID,0,VALID,101.567,VALID,0.112112,VALID,22.7766,VALID,30,VALID,0,
2014-08-05, 03:25:04,VALID,1008.48,VALID,0,VALID,101.583,VALID,0,VALID,22.7978,VALID,30,VALID,0,
2014-08-05, 03:26:04,VALID,1008.48,VALID,0,VALID,101.598,VALID,0,VALID,22.7571,VALID,30,VALID,0,
2014-08-05, 03:27:04,VALID,1008.48,VALID,0,VALID,101.628,VALID,0.112112,VALID,22.7978,VALID,30,VALID,0,
2014-08-05, 03:28:04,VALID,1008.48,VALID,0,VALID,101.651,VALID,0,VALID,22.7783,VALID,30,VALID,0,
2014-08-05, 03:29:04,VALID,1008.48,VALID,0,VALID,101.72,VALID,0,VALID,22.7571,VALID,30,VALID,0,
2014-08-05, 03:30:04,VALID,1008.46,VALID,0,VALID,101.811,VALID,0,VALID,22.7783,VALID,30,VALID,0,
2014-08-05, 03:31:04,VALID,1008.47,VALID,0,VALID,101.865,VALID,0.112112,VALID,22.7783,VALID,30,VALID,0,
2014-08-05, 03:32:04,VALID,1008.51,VALID,0,VALID,101.933,VALID,0,VALID,22.7588,VALID,30,VALID,0,
2014-08-05, 03:33:04,VALID,1008.48,VALID,0,VALID,101.941,VALID,0,VALID,22.7588,VALID,30,VALID,0,
2014-08-05, 03:34:04,VALID,1008.49,VALID,0,VALID,102.002,VALID,0,VALID,22.7588,VALID,30,VALID,0,
2014-08-05, 03:35:04,VALID,1008.5,VALID,0,VALID,102.04,VALID,0,VALID,22.7376,VALID,30,VALID,0,
2014-08-05, 03:36:04,VALID,1008.5,VALID,0,VALID,102.109,VALID,0.112112,VALID,22.7588,VALID,30,VALID,0,
2014-08-05, 03:37:04,VALID,1008.47,VALID,0,VALID,102.193,VALID,0,VALID,22.7588,VALID,30,VALID,0,
2014-08-05, 03:38:04,VALID,1008.48,VALID,0,VALID,102.238,VALID,0,VALID,22.7394,VALID,30,VALID,0,
2014-08-05, 03:39:04,VALID,1008.46,VALID,0,VALID,102.284,VALID,0.112112,VALID,22.7394,VALID,30,VALID,0,
2014-08-05, 03:40:04,VALID,1008.46,VALID,0,VALID,102.383,VALID,0,VALID,22.7394,VALID,30,VALID,0,
2014-08-05, 03:41:04,VALID,1008.44,VALID,0,VALID,102.46,VALID,0.112112,VALID,22.7394,VALID,30,VALID,0,
2014-08-05, 03:42:04,VALID,1008.44,VALID,0,VALID,102.597,VALID,0,VALID,22.7588,VALID,30,VALID,0,
2014-08-05, 03:43:04,VALID,1008.44,VALID,0,VALID,102.688,VALID,0,VALID,22.7588,VALID,30,VALID,0,
2014-08-05, 03:44:04,VALID,1008.41,VALID,0,VALID,102.78,VALID,0,VALID,22.7588,VALID,30,VALID,0,
2014-08-05, 03:45:04,VALID,1008.43,VALID,0,VALID,102.948,VALID,0,VALID,22.7783,VALID,30,VALID,0,
2014-08-05, 03:46:04,VALID,1008.41,VALID,0,VALID,103.024,VALID,0,VALID,22.7978,VALID,30,VALID,0,
2014-08-05, 03:47:04,VALID,1008.4,VALID,0,VALID,103.054,VALID,0.112112,VALID,22.7766,VALID,30,VALID,0,
2014-08-05, 03:48:04,VALID,1008.4,VALID,0,VALID,102.932,VALID,0,VALID,22.7978,VALID,30,VALID,0,
2014-08-05, 03:49:04,VALID,1008.38,VALID,0,VALID,102.826,VALID,0,VALID,22.7783,VALID,30,VALID,0,
2014-08-05, 03:50:04,VALID,1008.37,VALID,0,VALID,102.788,VALID,0,VALID,22.7588,VALID,30,VALID,0,
2014-08-05, 03:51:04,VALID,1008.4,VALID,0,VALID,102.833,VALID,0,VALID,22.7588,VALID,30,VALID,0,
2014-08-05, 03:52:04,VALID,1008.39,VALID,0,VALID,103.016,VALID,0,VALID,22.7588,VALID,30,VALID,0,
2014-08-05, 03:53:04,VALID,1008.4,VALID,0,VALID,103.169,VALID,0,VALID,22.7588,VALID,30,VALID,0,
2014-08-05, 03:54:04,VALID,1008.43,VALID,0,VALID,103.276,VALID,0,VALID,22.7588,VALID,30,VALID,0,
2014-08-05, 03:55:04,VALID,1008.46,VALID,0,VALID,103.291,VALID,0.112112,VALID,22.7571,VALID,30,VALID,0,
2014-08-05, 03:56:04,VALID,1008.47,VALID,0,VALID,103.337,VALID,0,VALID,22.7376,VALID,30,VALID,0,
2014-08-05, 03:57:04,VALID,1008.48,VALID,0,VALID,103.436,VALID,0,VALID,22.7783,VALID,30,VALID,0,
2014-08-05, 03:58:04,VALID,1008.53,VALID,0,VALID,103.55,VALID,0.112112,VALID,22.7783,VALID,30,VALID,0,
2014-08-05, 03:59:04,VALID,1008.52,VALID,0,VALID,103.619,VALID,0,VALID,22.7588,VALID,30,VALID,0,
2014-08-05, 04:00:04,VALID,1008.55,VALID,0,VALID,103.718,VALID,0,VALID,22.7588,VALID,30,VALID,0,